Location: *
(44.3925°N, 5.4708°E)
Time: 02:26:45
(UTC+00:00)

USA 186 - Pass Details

Date: 18 September 2019
Orbit: 261 x 450 km, 96.9° (Epoch: 07 October)

Event Time Altitude Azimuth Distance (km) Brightness Sun altitude
Exits shadow 19:16:13 20° 173° (S) 1,096 3.6 -17.0°
Maximum altitude 19:18:28 78° 259° (WSW) 465 2.0 -17.3°
Drops below altitude 10° 19:21:55 10° 346° (NNW) 1,598 5.1 -17.9°
Sets 19:23:59 0° 348° (NNW) 2,475 6.1 -18.3°
